Malaysia Virtual Airlines Airport Information Service

Kuantan

ICAO: WMKD Country: Malaysia
Latitude: 3.77539 Longitude: 103.209
Latest Arrival : MH1276 (WMKK-WMKD) Latest Departure : MH1269 (WMKD-WMKK)


WX CaptureLIVE
Data provided by noaa.gov | Fetched at 15:36:18

METAR : WMKD 261500Z 00000KT 9000 FEW008 25/24 Q1009 NOSIG

TAF : WMKD 261100Z 2612/2712 VRB03KT 9999 FEW024 TEMPO 2613/2615 VRB03KT 7000 TSRA FEW017CB


Runway Data for WMKD
Data provided by openaviationdata.com

Runway ID Mag Var Hdg Length Elevation Surface ILS Freq ILS Id ILS Slope
18 0 182° 9245 ft 58 ft Tarmac -- -- --
36 0 9245 ft 58 ft Tarmac 109.5 IKN 3

Kuantan, Malaysia
Use only for reference purposes



Not for navigational purposes.